Regional Weather Roundup
Issued by NWS

Home | Current Version | Previous Version | Graphics & Text | Print | Product List | Glossary On
Versions: 1 2 3 4 5 6 7 8 9 10 11 12 13 14 15 16 17 18 19 20 21 22 23 24 25 26 27 28 29 30 31 32 33 34 35 36 37 38 39 40 41 42 43 44 45 46 47 48 49 50
000
ASUS43 KOAX 180010
RWRNE

WEATHER ROUNDUP FOR NEBRASKA
NATIONAL WEATHER SERVICE OMAHA NE
600 PM CST TUE JAN 17 2017

NOTES: SATELLITE DATA IS BEING USED TO AUGMENT CLOUD COVER ABOVE
       12000 FEET.
       "FAIR" INDICATES FEW OR NO CLOUDS BELOW 12,000 FEET WITH NO
       SIGNIFICANT WEATHER AND/OR OBSTRUCTIONS TO VISIBILITY.

  * THESE STATIONS DO NOT REPORT WEATHER SUCH AS RAIN...SNOW OR FOG.

NEZ001>004-019>022-054>056-180100-
NEBRASKA PANHANDLE

CITY           SKY/WX    TMP DP  RH WIND       PRES   REMARKS
SCOTTSBLUFF    CLOUDY    41  17  38 W10       29.97S
6HR MIN TEMP:  35; 6HR MAX TEMP:  49;

ALLIANCE       CLOUDY    34  19  54 SW7       29.95S WCI  28
6HR MIN TEMP:  34; 6HR MAX TEMP:  46;

CHADRON        CLOUDY    30  23  75 W3        29.94R
KIMBALL        CLEAR     36  31  83 CALM      29.99S
SIDNEY         CLEAR     35  29  78 SW10      29.99S WCI  27
6HR MIN TEMP:  35; 6HR MAX TEMP:  46;

$$

NEZ057>060-069>072-079>082-180100-
SOUTHWEST NEBRASKA

CITY           SKY/WX    TMP DP  RH WIND       PRES   REMARKS
NORTH PLATTE   CLEAR     39  28  64 SW6       30.02S WCI  35
6HR MIN TEMP:  37; 6HR MAX TEMP:  47;

IMPERIAL       CLEAR     38  30  73 SW7       30.02F WCI  33
6HR MIN TEMP:  36; 6HR MAX TEMP:  44;

LEXINGTON      CLEAR     39  27  62 SW7       30.04S WCI  34
MCCOOK         CLEAR     43  27  53 SW3       30.04F
6HR MIN TEMP:  36; 6HR MAX TEMP:  47;

OGALLALA       CLEAR     38  29  71 CALM      30.01S
$$

NEZ005>010-023>029-035>040-094-180100-
NORTH CENTRAL NEBRASKA

CITY           SKY/WX    TMP DP  RH WIND       PRES   REMARKS
VALENTINE      CLEAR     35  14  42 SW10      29.93S WCI  27
6HR MIN TEMP:  35; 6HR MAX TEMP:  53;

AINSWORTH      CLEAR     38  22  52 S8        29.95R WCI  32
BROKEN BOW     CLEAR     35  27  72 SW5       30.01R WCI  31
6HR MIN TEMP:  34; 6HR MAX TEMP:  43;

O`NEILL        CLEAR     38  32  79 S8        29.99R WCI  32
ORD            CLEAR     35  28  75 CALM      30.01S
6HR MIN TEMP:  32; 6HR MAX TEMP:  41;

THEDFORD       CLEAR     40  27  61 SW7       29.98R WCI  35
$$

NEZ041-046>049-061>064-073>077-083>087-180100-
SOUTH CENTRAL NEBRASKA

CITY           SKY/WX    TMP DP  RH WIND       PRES   REMARKS
GRAND ISLAND   CLEAR     34  32  92 S6        30.06R WCI  29
6HR MIN TEMP:  31; 6HR MAX TEMP:  39;

AURORA         CLEAR     34  33  94 S5        30.07S WCI  30
HASTINGS       CLEAR     36  32  85 S3        30.07S
6HR MIN TEMP:  32; 6HR MAX TEMP:  40;

HEBRON         CLEAR     33  32  95 SW3       30.10S
HOLDREGE       CLEAR     37  31  80 SW6       30.05S WCI  32
KEARNEY *      CLEAR     37  32  81 S3        30.05S
YORK           CLEAR     32  32 100 SW5       30.08S WCI  27
$$

NEZ011>018-030>034-042>045-180100-
NORTHEAST NEBRASKA

CITY           SKY/WX    TMP DP  RH WIND       PRES   REMARKS
NORFOLK        CLEAR     31  28  89 S3        30.03S
6HR MIN TEMP:  26; 6HR MAX TEMP:  35;

ALBION         CLEAR     33  31  93 SE5       30.03F WCI  28
BLAIR          CLEAR     32  30  92 CALM      30.08S
FREMONT        CLEAR     32  30  94 CALM      30.09S
TEKAMAH        CLEAR     32  29  88 S6        30.08S WCI  26
6HR MIN TEMP:  27; 6HR MAX TEMP:  34;

WAYNE          CLEAR     31  30  96 S6        30.05R WCI  26
$$

NEZ050>053-065>068-078-088>093-180100-
SOUTHEAST NEBRASKA

CITY           SKY/WX    TMP DP  RH WIND       PRES   REMARKS
LINCOLN        CLEAR     31  28  89 S3        30.11S
6HR MIN TEMP:  31; 6HR MAX TEMP:  38;

OMAHA EPPLEY   CLEAR     30  24  78 SE7       30.10S WCI  23
6HR MIN TEMP:  29; 6HR MAX TEMP:  34;

BEATRICE       CLEAR     33  32  96 SW5       30.11S WCI  29
FALLS CITY     CLEAR     33  30  88 CALM      30.12S
6HR MIN TEMP:  33; 6HR MAX TEMP:  36;

NEBRASKA CITY  CLEAR     31  31 100 S3        30.11S
PLATTSMOUTH    CLEAR     31  28  86 S3        30.10S
$$

NEZ044-045-051>053-067-180100-
OMAHA AREA

CITY           SKY/WX    TMP DP  RH WIND       PRES   REMARKS
OMAHA EPPLEY   CLEAR     30  24  78 SE7       30.10S WCI  23
6HR MIN TEMP:  29; 6HR MAX TEMP:  34;

BLAIR          CLEAR     32  30  92 CALM      30.08S
FREMONT        CLEAR     32  30  94 CALM      30.09S
MILLARD        CLEAR     34  30  86 CALM      30.10S
OFFUTT AFB     CLEAR     30  30 100 SE8       30.10R WCI  22
PLATTSMOUTH    CLEAR     31  28  86 S3        30.10S
WAHOO          FAIR      32  30  91 SW5       30.09S WCI  28
$$




USA.gov is the U.S. government's official web portal to all federal, state and local government web resources and services.